Location: Unspecified
(0.0000°N, 0.0000°E)
Time: 08:46:50
(UTC+00:00)

A-11 Canister half - Pass Details

Date: 18 June 2024
Orbit: 1515 x 1684 km, 47.2° (Epoch: 23 July)

Event Time Altitude Azimuth Distance (km) Brightness Sun altitude
Rises 03:21:26 0° 325° (NW) 4,694 11.5 -36.1°
Reaches altitude 10° 03:24:32 10° 327° (NNW) 3,697 10.9 -35.4°
Maximum altitude 03:33:47 72° 51° (NE) 1,581 9.0 -33.4°
Drops below altitude 10° 03:42:58 10° 134° (SE) 3,677 11.2 -31.4°
Sets 03:46:01 0° 135° (SE) 4,669 11.7 -30.7°
